DW6276 Weather Reports


time (UTC)temp
C
wind
direction
speed
KPH
gust
KPH
rain 1hr
cm
rain 24hr
cm
rain mn
cm
humidity
%
barometer
mb
20230128001516 -10 0.0 3.2 0.00 0.00 0.00 80 1013.7
20230128000516 -10 0.0 3.2 0.00 0.00 0.00 80 1013.6
20230127235518 -9 0.0 1.6 0.00 0.00 0.00 79 1013.3
20230127234536 -9 0.0 1.6 0.00 0.00 0.00 79 1013.0
20230127233516 -9 0.0 3.2 0.00 0.00 0.00 79 1012.6
20230127232518 -8 0.0 3.2 0.00 0.00 0.00 78 1012.3
20230127231516 -8 0.0 4.8 0.00 0.00 0.00 78 1011.9
20230127230516 -8 0.0 3.2 0.00 0.00 0.00 77 1011.7
20230127225519 -8 0.0 6.4 0.00 0.00 0.00 77 1011.4
20230127224516 -8 248 1.6 6.4 0.00 0.00 0.00 77 1011.1
20230127223536 -7 0.0 3.2 0.00 0.00 0.00 76 1010.9
20230127222536 -7 248 1.6 6.4 0.00 0.00 0.00 76 1010.7
20230127220517 -7 0.0 4.8 0.00 0.00 0.00 74 1010.4
20230127215536 -6 0.0 3.2 0.00 0.00 0.00 74 1010.2
20230127214519 -6 0.0 1.6 0.00 0.00 0.00 75 1009.9
20230127213536 -6 0.0 9.7 0.00 0.00 0.00 74 1009.8
20230127212519 -6 0.0 4.8 0.00 0.00 0.00 74 1009.5
20230127211536 -6 0.0 3.2 0.00 0.00 0.00 75 1009.4
20230127210516 -6 0 1.6 9.7 0.00 0.00 0.00 75 1009.1
20230127205517 -6 0 1.6 17.7 0.00 0.00 0.00 75 1008.9
20230127204516 -6 248 1.6 6.4 0.00 0.00 0.00 76 1008.6
20230127203601 -6 0.0 4.8 0.00 0.00 0.00 76 1008.3
20230127202516 -5 338 1.6 9.7 0.00 0.00 0.00 75 1008.2
20230127201516 -5 270 1.6 6.4 0.00 0.00 0.00 75 1007.9
20230127200616 -5 315 3.2 11.3 0.00 0.00 0.00 75 1007.8
20230127195517 -5 248 3.2 17.7 0.00 0.00 0.00 76 1007.7
20230127194517 -5 248 1.6 6.4 0.00 0.00 0.00 77 1007.6
20230127193537 -5 248 1.6 6.4 0.00 0.00 0.00 77 1007.5
20230127192517 -5 248 1.6 6.4 0.00 0.00 0.00 78 1007.7
20230127191516 -5 315 1.6 6.4 0.00 0.00 0.00 79 1007.3
20230127190516 -5 315 1.6 11.3 0.00 0.00 0.00 79 1007.0
20230127185516 -5 248 1.6 8.0 0.00 0.00 0.00 79 1007.1
20230127184516 -5 0.0 14.5 0.00 0.00 0.00 79 1007.0
20230127183559 -5 0.0 3.2 0.00 0.00 0.00 79 1006.9
20230127182537 -5 270 1.6 6.4 0.00 0.00 0.00 80 1006.8
20230127181515 -5 248 3.2 12.9 0.00 0.00 0.00 79 1006.4
20230127180516 -5 248 3.2 14.5 0.00 0.00 0.00 80 1006.2
20230127175616 -5 270 1.6 8.0 0.00 0.00 0.00 80 1006.0
20230127174516 -5 315 4.8 17.7 0.00 0.00 0.00 80 1006.0
20230127173515 -5 0 1.6 11.3 0.00 0.00 0.00 82 1005.7
20230127172516 -5 0.0 12.9 0.00 0.00 0.00 82 1005.4
20230127171515 -5 315 1.6 17.7 0.00 0.00 0.00 83 1005.4
20230127170517 -5 0.0 4.8 0.00 0.00 0.00 85 1005.2
20230127165516 -5 338 3.2 29.0 0.00 0.00 0.00 86 1004.9
20230127164515 -5 315 1.6 8.0 0.00 0.00 0.00 87 1004.6
20230127163515 -5 293 1.6 6.4 0.00 0.00 0.00 87 1004.4
20230127162515 -4 248 1.6 4.8 0.00 0.00 0.00 87 1004.3
20230127161517 -4 0.0 3.2 0.00 0.00 0.00 88 1003.9
20230127160515 -4 248 1.6 6.4 0.00 0.00 0.00 88 1003.7
20230127155517 -4 248 1.6 4.8 0.00 0.00 0.00 88 1003.5
20230127154515 -3 270 1.6 8.0 0.00 0.00 0.00 89 1003.3
20230127153515 -3 270 1.6 16.1 0.00 0.00 0.00 89 1003.0
20230127152515 -3 248 1.6 9.7 0.00 0.00 0.00 90 1002.7
20230127151518 -3 248 1.6 9.7 0.00 0.00 0.00 90 1002.3
20230127150557 -2 225 1.6 4.8 0.00 0.00 0.00 91 1002.1
20230127145537 -3 270 3.2 29.0 0.00 0.00 0.00 91 1001.9
20230127144537 -2 315 1.6 9.7 0.00 0.00 0.00 92 1001.6
20230127143515 -2 0 3.2 30.6 0.00 0.00 0.00 92 1001.1
20230127142515 -2 248 1.6 14.5 0.00 0.00 0.00 93 1000.6
20230127141517 -1 0.0 4.8 0.00 0.00 0.00 93 1000.3
20230127140515 0 248 3.2 11.3 0.00 0.00 0.00 93 1000.0
20230127135515 0 248 1.6 6.4 0.00 0.00 0.00 94 999.8
20230127134515 0 248 3.2 12.9 0.00 0.00 0.00 94 999.5
20230127133515 1 225 1.6 6.4 0.00 0.00 0.00 94 999.2
20230127132515 1 225 1.6 9.7 0.00 0.00 0.00 94 998.9
20230127131555 2 248 3.2 11.3 0.00 0.00 0.00 94 998.6
20230127130515 2 248 1.6 17.7 0.00 0.00 0.00 95 998.3
20230127125517 2 248 1.6 11.3 0.00 0.00 0.00 95 998.1
20230127124515 2 248 3.2 14.5 0.00 0.00 0.00 95 997.9
20230127123515 2 248 3.2 11.3 0.00 0.00 0.00 95 997.7
20230127122515 1 248 1.6 9.7 0.00 0.00 0.00 95 997.6
20230127121515 1 0.0 11.3 0.00 0.00 0.00 95 997.5
20230127120515 1 0.0 6.4 0.00 0.00 0.00 95 997.4
20230127115516 1 0.0 0.0 0.00 0.00 0.00 95 997.4
20230127114515 1 248 1.6 6.4 0.00 0.00 0.00 94 997.3
20230127113515 1 248 1.6 6.4 0.00 0.00 0.00 94 997.3
20230127112515 0 248 1.6 8.0 0.00 0.00 0.00 94 997.4
20230127111515 0 248 1.6 11.3 0.00 0.00 0.00 94 997.5
20230127110515 0 158 1.6 4.8 0.00 0.00 0.00 94 997.4
20230127105515 0 158 3.2 9.7 0.00 0.00 0.00 94 997.6
20230127104515 0 248 1.6 4.8 0.00 0.00 0.00 93 997.6
20230127103515 -1 248 1.6 6.4 0.00 0.00 0.00 93 997.7
20230127102516 -1 225 1.6 9.7 0.00 0.00 0.00 93 997.8
20230127101518 -1 203 1.6 8.0 0.00 0.00 0.00 93 997.9
20230127100517 -1 225 1.6 9.7 0.00 0.00 0.00 93 998.1
20230127095517 -1 225 1.6 8.0 0.00 0.00 0.00 93 998.1
20230127094518 -2 248 1.6 9.7 0.00 0.00 0.00 93 998.3
20230127093517 -2 180 3.2 9.7 0.00 0.00 0.00 93 998.5
20230127092517 -2 203 1.6 4.8 0.00 0.00 0.00 93 998.7
20230127091516 -2 203 1.6 11.3 0.00 0.00 0.00 93 998.8
20230127090518 -2 158 1.6 8.0 0.00 0.00 0.00 93 999.0
20230127085517 -2 225 3.2 11.3 0.00 0.00 0.00 93 999.3
20230127084558 -2 225 3.2 11.3 0.00 0.00 0.00 92 999.4
20230127083518 -3 180 1.6 9.7 0.00 0.00 0.00 92 999.6
20230127082516 -3 180 3.2 9.7 0.00 0.00 0.00 92 999.9
20230127081517 -3 225 1.6 6.4 0.00 0.00 0.00 92 1000.1
20230127080536 -3 180 3.2 9.7 0.00 0.00 0.00 92 1000.3
20230127075517 -3 180 1.6 8.0 0.00 0.00 0.00 92 1000.5
20230127074537 -3 203 3.2 12.9 0.00 0.00 0.00 92 1000.6
20230127073537 -4 180 1.6 4.8 0.00 0.00 0.00 92 1000.9
20230127072516 -4 180 3.2 9.7 0.00 0.00 0.00 91 1001.0
20230127071517 -4 180 3.2 9.7 0.00 0.00 0.00 91 1001.3
20230127070536 -5 203 3.2 14.5 0.00 0.00 0.00 91 1001.4
20230127065516 -5 180 3.2 9.7 0.00 0.00 0.00 91 1001.6
20230127064516 -5 203 3.2 9.7 0.00 0.00 0.00 90 1001.9
20230127063516 -5 158 3.2 17.7 0.00 0.00 0.00 90 1002.3
20230127062516 -5 180 3.2 17.7 0.00 0.00 0.00 90 1002.5
20230127061516 -5 203 1.6 8.0 0.00 0.00 0.00 89 1002.8
20230127060518 -5 158 3.2 11.3 0.00 0.00 0.00 89 1003.1
20230127055515 -5 180 3.2 11.3 0.00 0.00 0.00 88 1003.5
20230127054515 -5 158 3.2 11.3 0.00 0.00 0.00 88 1003.5
20230127053515 -5 158 3.2 8.0 0.00 0.00 0.00 88 1003.9
20230127052516 -6 180 4.8 12.9 0.00 0.00 0.00 88 1004.2
20230127051515 -6 158 3.2 11.3 0.00 0.00 0.00 88 1004.7
20230127050515 -6 180 3.2 11.3 0.00 0.00 0.00 88 1005.2
20230127045535 -6 158 3.2 8.0 0.00 0.00 0.00 88 1005.2
20230127044515 -7 158 1.6 6.4 0.00 0.00 0.00 88 1005.5
20230127043515 -7 158 1.6 4.8 0.00 0.00 0.00 88 1005.8
20230127042515 -8 158 1.6 6.4 0.00 0.00 0.00 88 1006.0
20230127041515 -8 135 1.6 6.4 0.00 0.00 0.00 88 1006.4
20230127040515 -8 135 1.6 4.8 0.00 0.00 0.00 87 1006.7
20230127035515 -9 135 1.6 4.8 0.00 0.00 0.00 87 1007.0
20230127034515 -9 158 1.6 4.8 0.00 0.00 0.00 87 1007.4
20230127033517 -10 158 1.6 4.8 0.00 0.00 0.00 87 1007.8
20230127032518 -10 158 1.6 8.0 0.00 0.00 0.00 86 1008.1
20230127031517 -10 0.0 3.2 0.00 0.00 0.00 86 1008.5
20230127030517 -10 158 1.6 3.2 0.00 0.00 0.00 86 1008.6
20230127025517 -10 158 1.6 9.7 0.00 0.00 0.00 86 1009.1
20230127024538 -10 0.0 3.2 0.00 0.00 0.00 85 1009.3
20230127023517 -10 248 1.6 3.2 0.00 0.00 0.00 85 1009.8
20230127022518 -10 248 1.6 9.7 0.00 0.00 0.00 85 1010.4
20230127021517 -10 248 1.6 4.8 0.00 0.00 0.00 85 1010.4
20230127020517 -10 0.0 6.4 0.00 0.00 0.00 84 1010.5
20230127015517 -10 158 1.6 3.2 0.00 0.00 0.00 84 1010.6
20230127014517 -10 248 1.6 4.8 0.00 0.00 0.00 84 1011.3
20230127013518 -10 135 1.6 8.0 0.00 0.00 0.00 84 1011.4
20230127012516 -10 158 1.6 6.4 0.00 0.00 0.00 83 1012.1
20230127011516 -10 0.0 8.0 0.00 0.00 0.00 83 1012.6
20230127010517 -10 248 1.6 4.8 0.00 0.00 0.00 82 1012.9
20230127005517 -10 0.0 3.2 0.00 0.00 0.00 82 1013.0
20230127004518 -10 0.0 3.2 0.00 0.00 0.00 82 1013.0
20230127003518 -10 0.0 3.2 0.00 0.00 0.00 81 1013.1
20230127002518 -11 0.0 0.0 0.00 0.00 0.00 81 1013.0